Showing default

IRIDE-MS1-EAG2-14, 68447

Orbit data source: Space-Track

IRIDE-MS1-EAG2-14, 68447 is an Italian payload satellite in SSO that was launched on Mon, 30 Mar 2026 UTC via an FALCON 9 launch vehicle from the Air Force Western Test Range (AFWTR). Payload-class satellites include a variety of spacecraft equipped with specific instruments for various scientific and technological missions. These include communications satellites like Starlink; space stations such as the ISS; scientific satellites like the Hubble; Earth observation satellites from companies like Planet Labs, Umbra, and HawkEye 360; GPS; miniature CubeSats for education and research; and military/defense satellites.

Loading next visibility...
Identifier
68447, 2026-067AH
Orbit
SSO
Country
Flag of ITIT
Related business
Manufacturer
OHB-I
Mission
Operational Commercial Technology
Bus & Motor
EAGLET, Unknown motor
Mass
25 kg wet, 25 kg dry
Launch date (UTC)
2026-03-30 (6 months ago)
Launch vehicle
FALCON 9
Launch site
Air Force Western Test Range (AFWTR)
Object type
Payload
Rocket body
Debris
Shape & HBR
Box + 2 Pan, 1.0 m
Radar Cross Section
0.368 m², Medium (>0.1 m² and < 1m²)

Expand to show TLE details & history
Last TLE update: 9 hours ago

TLE from 9 hours ago
0 IRIDE-MS1-EAG2-14
1 68447U 26067AH  26263.14647853  .00005200  00000-0  24400-3 0  9997
2 68447  97.4616 220.4595 0003281  67.5364 292.6218 15.20083717 26367
Epoch: 2026-09-20T03:30Z
TLE epoch observation values (Epoch: 2026-09-20T03:30:55.744Z)
Latitude
-0.00008°
Longitude
168.6824°
Altitude
507.808 km
Speed
7.611 km/s
True Right ascension
14h 41m 50s
True Declination
0° 00' 00"
Sunlit
Object was in daylight at epoch
Visualization orbit readout
Latitude
Unknown
Longitude
Unknown
Altitude
Unknown
Speed
Unknown
Apparent Right ascension
Unknown
Apparent Declination
Unknown
Sunlit
N/A
Visualization observer readout
Local Sidereal Time
05:11:51
Azimuth
Unknown
Elevation
Unknown
Doppler factor
Unknown
Orbital elements
Apogee altitude
504.814 km
Perigee altitude
500.298 km
Semi-major axis
6,880.693 km
Eccentricity
0.00033
Inclination
97.4616°
RAAN
220.4595°
Arg. of periapsis
67.5364°
True anomaly
292.58709°
Mean anomaly
292.6218°
Eccentric anomaly
292.60445°
Mean motion
3.80272 °/min
Orbital period
94.67 mins
BSTAR
0.000244
Loading maneuver chart data...
Computing Atmospheric mass density...
Loading historical data...
Loading historical data...
Loading historical data...
Loading historical data...
Loading historical data...
Loading historical data...
Loading historical data...

Documentation

Showing up to 5 results
|